This is the latest recevied weather packets stored in our database for station/object N3FU-13. If no packets are shown the sender has not sent any weather packets the latest 10 day(s).
| Time | Temp. | Humidity | Pressure | Rain* | Wind** | Luminosity | Snow |
|---|---|---|---|---|---|---|---|
| 1777555506 | 25° C | 89% | 1012.9 hPa | 0 mm | - | - | - |
| 1777554741 | 25° C | 89% | 1012.9 hPa | 0 mm | - | - | - |
| 1777554739 | 25° C | 89% | 1012.9 hPa | 0 mm | - | - | - |
| 1777554736 | 25° C | 89% | 1012.9 hPa | 0 mm | - | - | - |
| 1777553836 | 25° C | 91% | 1012.9 hPa | 0 mm | - | - | - |
| 1777552936 | 24.44° C | 92% | 1012.9 hPa | 0 mm | - | - | - |
| 1777552036 | 23.89° C | 93% | 1012.9 hPa | 0 mm | - | - | - |
| 1777551136 | 23.33° C | 94% | 1012.7 hPa | 0 mm | - | - | - |
| 1777550349 | 23.33° C | 93% | 1012.3 hPa | 0 mm | - | - | - |
| 1777550236 | 23.33° C | 93% | 1012.3 hPa | 0 mm | - | - | - |
| 1777549336 | 22.78° C | 93% | 1012 hPa | 0 mm | - | - | - |
| 1777548492 | 22.78° C | 93% | 1012 hPa | 0 mm | - | - | - |
| 1777548436 | 22.78° C | 93% | 1012 hPa | 0 mm | - | - | - |
| 1777547536 | 22.78° C | 92% | 1011.9 hPa | 0 mm | - | - | - |
| 1777546636 | 22.78° C | 91% | 1011.3 hPa | 0 mm | - | - | - |
| 1777546056 | 22.78° C | 91% | 1011.1 hPa | 0 mm | - | - | - |
| 1777545736 | 22.78° C | 91% | 1011.1 hPa | 0 mm | - | - | - |
| 1777544836 | 23.33° C | 92% | 1011.3 hPa | 0 mm | - | - | - |
| 1777543936 | 23.33° C | 92% | 1011.7 hPa | 0 mm | - | - | - |
| 1777543036 | 23.33° C | 93% | 1011.8 hPa | 0 mm | - | - | - |
| 1777542136 | 23.33° C | 93% | 1011.7 hPa | 0 mm | - | - | - |
| 1777541236 | 23.33° C | 92% | 1011.5 hPa | 0 mm | - | - | - |
| 1777540336 | 23.33° C | 93% | 1011.4 hPa | 0 mm | - | - | - |
| 1777539584 | 23.33° C | 93% | 1011.3 hPa | 0 mm | - | - | - |
| 1777539436 | 23.33° C | 93% | 1011.3 hPa | 0 mm | - | - | - |
* Rain latest hour (hover to see other rain measurements)
** Current wind speed in m/s (hover to see current wind gust speed)